Starlink 6085

operational
NORAD ID: 57115 Int'l Des: 2023-090 Owner: SPXS Country: US Constellation: starlink
LEOCIRCULAR

Starlink 6085について

説明を読み込み中...

リアルタイム位置

3D地球を読み込み中...

次回通過

高度履歴

Altitude vs Time

uPlot chart will show altitude changes over time

軌道要素

1 57115U 23090Q 25303.90696007 .00008066 00000-0 53505-3 0 9994
2 57115 42.9999 257.0654 0008610 94.6260 265.5568 15.07530184130920
Epoch: Oct 30, 2025 • Age: 13 hours

現在のステータス

高度 540.6 km
速度 7.60 km/s
衛星直下点 30.14°N, 91.93°E
打ち上げ日 Jun 23, 2023
運用期間 2.3 years
タイプ internet

技術仕様

分類 Payload
質量 305.00 kg
乾燥質量 290.00 kg
総質量 305.00 kg
長さ 0.20 m
直径 2.80 m
スパン 9.00 m
形状 Box + pan
製造者 SPXS
バスタイプ Starlink
フェーズステータス In Orbit
所有者/国 SPXS/US

大規模コンステレーション

Loading constellations...